Location: Chavannes
(47.1090°N, 0.2226°W)
Time: 15:53:57
(UTC+00:00)

Cosmos 724 - Pass Details

Date: 16 October 2021
Orbit: 857 x 937 km, 65.6° (Epoch: 07 December)

Event Time Altitude Azimuth Distance (km) Brightness Sun altitude
Rises 19:16:12 0° 323° (NW) 3,538 8.2 -21.9°
Reaches altitude 10° 19:18:44 10° 323° (NW) 2,581 7.3 -22.4°
Maximum altitude 19:24:44 84° 237° (WSW) 894 4.2 -23.4°
Enters shadow 19:26:53 41° 152° (SSE) 1,246 4.7 -23.7°
